Vertical_Velocity
-1 -1 -0 -0 -0 0 0 0 0 0 -0 0 -0 0 -1 -1 3 -1 -1 -1 -1 1 -0 1 -1 -0 -1 1 1 1 2 5 4 0 -0 0 -0 1 1 0 0 -1 -0 0 -1
-0 -0 -1 -1 -1 -1 -1 -0 -1 -1 -0 0 -0 0 0 -0 2 1 -0 -1 0 -0 -0 -0 -1 -1 -1 -1 0 0 4 5 1 0 -1 1 -1 3 0 -1 -0 1 -1 -0 0
-1 -1 -1 -1 -1 -1 -1 -1 -1 -0 -1 -0 -1 -2 -0 1 0 3 -1 -1 1 -0 -0 -0 -0 1 -0 -2 0 0 3 1 -1 -0 -1 0 -1 1 1 0 -1 1 -0 -1 -1
-1 -1 -1 -0 -0 -0 -1 -1 -0 -0 -0 -0 -0 0 -0 0 0 2 1 0 1 0 -1 -1 -0 -0 -1 -1 0 1 -1 1 0 0 -1 -0 0 1 1 1 -1 -0 1 -1 -2
-1 -1 -1 -2 -1 -1 -1 -0 -0 0 0 1 1 -0 -1 0 1 1 2 1 -0 -0 -1 -1 -0 -0 2 1 1 -1 0 3 2 -0 -0 -2 -0 1 -1 -1 1 -1 1 0 -2
-1 -1 -1 -1 -1 -1 -1 -1 -1 -0 -1 -0 -0 -1 -0 -1 -1 0 0 3 -1 0 -0 -1 0 0 1 2 1 -3 1 2 -1 1 -1 -3 -2 1 -0 -1 1 -0 -0 0 -1
-1 -1 -2 -1 -1 -1 -1 -1 -2 -1 -1 -1 -1 -0 -0 -1 0 -1 0 3 1 -0 0 0 -0 -0 1 0 1 2 -9 -3 6 0 -2 1 2 1 -1 -0 -0 2 -0 -0 -0
-1 -0 -1 -2 -1 -2 -2 -1 -1 -2 -1 -1 -1 -1 -0 -1 -1 -0 -1 1 2 -1 -1 1 0 1 -0 1 -0 2 -4 5 0 3 6 2 6 1 -0 -0 -2 3 -1 -0 -2
-0 1 -0 -3 -1 -2 -1 -0 -1 -2 -1 -1 -1 -1 -1 -1 -1 -1 0 1 3 1 0 1 0 1 -0 1 1 -0 5 4 2 3 2 6 1 0 -0 -0 -2 2 1 -0 -0
-0 -0 1 -2 -2 -2 -3 -1 0 -2 -1 -1 -1 -1 -1 -0 -1 -1 -0 2 3 1 0 -0 0 0 0 -2 7 -1 2 3 8 4 -9 -1 0 -6 2 0 -0 -2 3 0 0
-2 -1 0 -2 -2 -1 -1 -1 0 -1 -1 0 -1 -1 -1 -0 -1 -1 -1 1 3 1 -0 -1 -0 0 5 -1 -2 -0 -0 2 2 1 1 1 -1 -0 -2 -1 -2 1 -4 1 1
-0 -0 0 0 -3 -0 -0 -0 -1 -1 -2 -1 0 -1 -1 -1 -1 -1 -1 -0 1 0 -1 -1 1 -4 2 -0 -1 0 2 -1 1 1 -0 -0 2 3 8 4 -3 -2 -1 -1 -0
-3 0 -1 0 -3 -2 -2 -2 -1 -1 -1 -1 -1 -1 -2 -0 -1 -1 -1 -0 1 1 -0 -1 -3 0 0 1 0 2 1 -0 -1 1 1 0 0 -2 0 -0 0 -1 -0 0 0
-2 -0 -2 -1 -1 -2 0 -0 -1 -3 -2 0 -1 -1 -2 -2 -1 -1 -0 -1 -0 1 0 -2 1 0 -0 0 0 3 -1 -0 -1 -1 9 -1 27 -2 -1 -0 -2 -1 -1 1 1
-3 -1 -1 -1 -2 -2 -2 1 -0 -2 1 -3 -3 -2 -1 -2 -2 -1 -1 -1 -0 -0 0 0 1 -0 0 1 -1 3 -1 -1 -0 -1 -0 -2 0 -4 0 -0 2 -1 0 0 -1
-2 -4 -0 -1 -0 -2 -1 -0 0 -0 -2 -4 -2 -2 -2 0 -1 -1 -2 -1 0 0 1 -1 0 -1 -1 -1 -1 -1 -2 -1 -2 -1 -1 -5 -2 -0 1 2 -1 1 -0 -1 -2
-1 -2 0 0 -1 -2 -0 0 -2 4 1 -4 -2 -1 -1 -3 -1 -2 -1 -0 1 0 0 1 -0 -1 -1 -1 -1 -2 -6 16 -2 -3 19 -5 1 3 -2 0 1 0 -1 -0 -1
1 -2 -2 -1 -2 -1 -0 -1 0 2 2 2 -1 1 -2 -2 -1 -1 -0 -1 -0 -0 3 1 -2 -3 -2 -2 6 -3 9 3 -2 2 14 -1 2 -1 -2 -0 1 1 2 -1 0
0 -1 -2 -1 -0 -0 -0 0 0 2 0 1 1 -0 -2 -1 1 0 -1 -0 -0 -1 -0 2 13 -2 -2 -1 -3 -0 -1 -1 -2 -3 -4 6 -0 2 -2 -1 0 -1 1 2 1
-2 -1 -2 -2 -0 0 0 0 -1 0 1 2 2 1 2 -2 -1 -2 -1 0 -1 -1 -1 1 9 -1 -2 -1 -1 -1 -3 -1 -3 -1 -2 3 -1 1 0 -2 -0 -1 -1 -1 1
-0 1 -2 -0 -2 -1 0 -1 -1 0 1 0 1 2 4 -1 1 -2 1 -2 -1 -2 -2 1 -2 -5 -1 -0 7 -3 -1 -2 -4 -5 -1 2 8 2 1 -1 -1 0 -1 -1 0
1 0 -0 0 0 -1 -1 -0 1 0 2 -0 1 3 4 -0 1 -1 1 4 1 0 -2 -2 2 5 12 2 0 -3 -2 1 2 8 -1 0 2 0 -2 -1 -1 -1 0 1 -1
-2 1 0 1 0 0 -0 -1 -1 0 1 2 0 0 0 3 1 2 2 -3 1 2 1 -0 -3 0 -4 -3 -1 -1 -1 -0 1 -1 -1 -1 2 0 0 -1 -1 0 -1 1 1
-0 -1 -2 0 -1 -0 -0 -0 -1 -1 0 2 -1 3 2 3 2 0 4 1 -1 5 0 1 5 -8 17 18 6 -4 -3 -2 -0 1 2 1 0 -3 -0 -2 -1 -2 -0 0 3
-1 1 -1 -0 -0 -1 -2 1 -0 -1 0 2 3 2 1 3 2 -1 8 -1 -1 3 -0 1 -2 2 -1 -3 -2 -2 -2 -2 -1 -0 -0 3 2 -3 -1 -1 -3 -1 -1 -1 -1
-0 0 1 1 1 -1 -1 0 1 1 1 0 2 0 2 4 -3 -5 1 6 5 1 -1 4 1 -2 1 -3 -1 -3 -3 -1 -1 -0 -1 -0 3 -3 -2 -1 -2 -2 -3 -2 -1
-2 1 -1 1 0 0 2 -0 -0 1 2 1 3 3 3 -4 0 3 2 -4 1 3 -3 -3 5 0 -2 -1 -1 -9 2 -3 -1 -1 -0 -1 2 -5 -1 -2 -1 -3 -2 -2 -2
Height
5885 5884 5883 5882 5881 5880 5879 5878 5878 5879 5879 5880 5880 5881 5881 5881 5880 5881 5881 5881 5880 5880 5880 5880 5880 5880 5880 5879 5878 5879 5878 5877 5880 5880 5881 5880 5880 5879 5879 5877 5877 5876 5875 5876 5876
5887 5886 5885 5883 5882 5881 5880 5879 5879 5879 5879 5879 5880 5881 5881 5881 5880 5880 5880 5880 5880 5880 5880 5879 5879 5879 5880 5879 5877 5877 5877 5877 5878 5879 5880 5880 5881 5880 5880 5878 5877 5876 5875 5876 5875
5889 5887 5886 5885 5884 5882 5881 5880 5879 5878 5878 5878 5879 5879 5880 5880 5880 5879 5879 5879 5880 5880 5879 5879 5879 5879 5880 5878 5875 5874 5875 5876 5879 5878 5879 5880 5881 5881 5881 5879 5877 5878 5876 5876 5876
5891 5889 5888 5886 5885 5883 5882 5881 5879 5878 5878 5877 5877 5878 5878 5878 5880 5878 5878 5878 5879 5879 5878 5878 5879 5879 5879 5878 5876 5873 5872 5875 5876 5877 5878 5880 5880 5881 5882 5880 5878 5878 5879 5877 5877
5893 5892 5890 5888 5886 5884 5883 5881 5879 5878 5876 5875 5875 5876 5876 5876 5876 5876 5876 5877 5878 5878 5878 5879 5879 5879 5880 5879 5876 5872 5869 5873 5875 5877 5878 5880 5880 5881 5881 5881 5879 5879 5880 5878 5878
5895 5893 5891 5889 5888 5886 5884 5882 5880 5878 5876 5875 5873 5873 5874 5875 5874 5874 5874 5875 5877 5877 5877 5878 5879 5880 5881 5880 5877 5874 5872 5874 5876 5876 5878 5880 5881 5882 5882 5882 5881 5881 5880 5879 5879
5896 5894 5892 5890 5888 5886 5884 5882 5880 5878 5876 5874 5872 5871 5871 5872 5871 5872 5872 5873 5875 5876 5875 5877 5879 5880 5881 5880 5878 5877 5877 5876 5875 5877 5878 5880 5882 5882 5883 5883 5882 5881 5881 5881 5880
5896 5894 5891 5889 5888 5886 5884 5882 5880 5877 5874 5873 5871 5870 5869 5869 5869 5869 5870 5871 5873 5874 5874 5876 5878 5879 5880 5881 5880 5879 5877 5875 5876 5876 5879 5880 5880 5882 5883 5883 5883 5883 5882 5883 5882
5895 5893 5890 5888 5887 5885 5883 5881 5879 5876 5873 5871 5870 5868 5867 5867 5867 5867 5867 5869 5871 5873 5873 5875 5877 5879 5879 5881 5883 5881 5881 5879 5878 5879 5879 5878 5876 5881 5883 5883 5884 5884 5884 5884 5885
5893 5891 5889 5886 5884 5883 5881 5880 5878 5876 5873 5870 5869 5869 5867 5866 5865 5865 5865 5866 5869 5871 5872 5875 5875 5877 5878 5882 5883 5881 5881 5881 5880 5881 5880 5879 5879 5881 5883 5884 5884 5884 5885 5885 5887
5890 5888 5886 5884 5881 5880 5879 5877 5877 5875 5872 5870 5868 5867 5866 5865 5863 5863 5863 5864 5866 5869 5870 5872 5874 5876 5879 5879 5879 5880 5881 5881 5880 5880 5881 5880 5880 5881 5883 5884 5884 5884 5885 5885 5887
5886 5884 5882 5880 5878 5877 5876 5874 5873 5873 5871 5869 5867 5865 5864 5864 5863 5862 5862 5863 5864 5867 5868 5870 5871 5873 5874 5875 5877 5879 5880 5880 5881 5881 5881 5880 5881 5881 5881 5880 5883 5884 5884 5884 5887
5881 5880 5878 5877 5875 5873 5872 5872 5871 5870 5870 5868 5866 5863 5862 5862 5861 5861 5861 5861 5863 5864 5867 5867 5869 5872 5873 5874 5876 5878 5878 5878 5880 5880 5882 5882 5883 5882 5881 5881 5881 5881 5883 5884 5886
5878 5877 5874 5873 5872 5869 5868 5867 5867 5867 5866 5867 5864 5862 5861 5860 5860 5859 5859 5861 5861 5862 5864 5865 5867 5869 5871 5873 5875 5879 5876 5877 5878 5879 5885 5882 5884 5882 5881 5881 5881 5881 5882 5884 5886
5874 5873 5872 5870 5869 5866 5865 5863 5863 5863 5864 5863 5861 5861 5860 5860 5859 5859 5858 5858 5860 5861 5863 5865 5866 5867 5869 5871 5872 5876 5874 5875 5875 5878 5878 5881 5884 5880 5881 5881 5882 5882 5883 5885 5886
5872 5870 5868 5866 5865 5863 5861 5860 5859 5860 5858 5858 5859 5859 5858 5857 5857 5856 5856 5857 5858 5859 5860 5862 5864 5865 5867 5868 5870 5871 5872 5873 5874 5879 5882 5878 5880 5882 5879 5880 5880 5882 5882 5883 5884
5868 5864 5863 5862 5861 5859 5857 5856 5857 5855 5855 5855 5855 5855 5855 5855 5854 5854 5854 5855 5856 5857 5858 5860 5862 5863 5865 5867 5869 5870 5873 5878 5879 5881 5883 5876 5877 5879 5875 5876 5878 5880 5880 5881 5882
5864 5860 5858 5857 5856 5854 5852 5852 5851 5851 5850 5850 5850 5850 5851 5852 5853 5852 5852 5852 5853 5854 5859 5860 5861 5861 5862 5866 5871 5869 5877 5879 5880 5880 5880 5874 5874 5873 5871 5872 5874 5876 5877 5878 5879
5859 5856 5854 5852 5850 5849 5848 5846 5845 5846 5846 5846 5846 5846 5847 5849 5850 5850 5850 5851 5851 5852 5856 5859 5863 5860 5861 5862 5866 5868 5868 5870 5873 5873 5873 5875 5871 5869 5868 5868 5869 5871 5872 5874 5875
5854 5852 5849 5847 5845 5843 5841 5840 5838 5838 5840 5841 5842 5842 5844 5845 5846 5847 5847 5849 5849 5850 5850 5855 5860 5858 5858 5860 5862 5864 5867 5870 5869 5872 5873 5872 5868 5866 5865 5865 5865 5866 5867 5868 5870
5849 5846 5844 5841 5839 5837 5835 5833 5831 5831 5833 5835 5836 5838 5839 5841 5843 5843 5846 5846 5846 5847 5848 5851 5855 5857 5857 5858 5863 5860 5862 5863 5866 5866 5868 5869 5869 5863 5862 5861 5861 5861 5862 5863 5864
5843 5841 5837 5835 5833 5830 5828 5827 5825 5823 5825 5827 5829 5831 5833 5834 5837 5839 5842 5843 5843 5844 5845 5848 5854 5857 5857 5854 5855 5856 5858 5861 5864 5866 5862 5860 5861 5858 5858 5858 5858 5858 5858 5859 5859
5836 5834 5831 5828 5826 5824 5821 5820 5818 5817 5817 5818 5820 5822 5824 5828 5831 5834 5836 5838 5840 5841 5843 5845 5848 5853 5851 5851 5851 5852 5853 5854 5855 5856 5857 5858 5860 5854 5854 5853 5854 5854 5854 5854 5855
5828 5827 5825 5822 5820 5817 5815 5813 5812 5811 5810 5810 5811 5814 5816 5820 5823 5826 5830 5832 5835 5837 5839 5841 5847 5848 5851 5850 5848 5847 5848 5849 5851 5854 5855 5853 5853 5849 5850 5849 5848 5849 5850 5851 5851
5820 5818 5815 5814 5812 5809 5806 5805 5803 5802 5801 5801 5802 5804 5807 5812 5814 5818 5822 5824 5828 5831 5833 5836 5839 5842 5843 5841 5842 5842 5842 5843 5846 5848 5849 5851 5847 5846 5845 5845 5844 5845 5846 5846 5846
5811 5808 5804 5802 5801 5799 5797 5794 5793 5792 5794 5792 5793 5793 5798 5802 5805 5806 5812 5817 5820 5823 5825 5829 5833 5833 5835 5834 5835 5835 5837 5838 5839 5842 5842 5842 5843 5840 5840 5839 5840 5840 5841 5841 5842
5799 5797 5794 5792 5788 5788 5786 5785 5784 5783 5783 5783 5783 5785 5788 5789 5794 5799 5803 5806 5810 5815 5818 5822 5825 5826 5830 5829 5827 5830 5831 5832 5833 5834 5836 5837 5836 5833 5835 5835 5835 5835 5836 5836 5837